Regional Weather Roundup
Issued by NWS

Home | Current Version | Previous Version | Graphics & Text | Print | Product List | Glossary On
Versions: 1 2 3 4 5 6 7 8 9 10 11 12 13 14 15 16 17 18 19 20 21 22 23 24 25 26 27 28
000
ASUS45 KCYS 192310
RWRWY

WYOMING REGIONAL WEATHER ROUNDUP
NATIONAL WEATHER SERVICE CHEYENNE WY
500 PM MDT THU APR 19 2018

NOTE:  "FAIR" INDICATES FEW OR NO CLOUDS BELOW 12,000 FEET
WITH NO SIGNIFICANT WEATHER AND/OR OBSTRUCTIONS TO VISIBILITY.

WYZ001-200000-
YELLOWSTONE NATIONAL PARK

CITY           SKY/WX    TMP DP  RH WIND       PRES   REMARKS
LK YELLOWSTONE   N/A     42  18  37 CALM      30.03S
W YELLOWSTONE  NOT AVBL

$$
WYZ002>013-054>058-071-098>099-200000-
NORTHERN WYOMING

CITY           SKY/WX    TMP DP  RH WIND       PRES   REMARKS
JACKSON        FAIR      54  17  23 N9G16     29.91F
CODY           FAIR      54  19  25 E7        30.01F
GREYBULL       FAIR      57  26  30 CALM      29.98F
WORLAND        FAIR      59  26  28 NW8       29.97S
SHERIDAN       FAIR      61  25  25 SE14G21   29.99F
BUFFALO        FAIR      58  24  27 S12       30.04F
GILLETTE       FAIR      57  27  31 SE24G30   30.05F
HULETT         FAIR      59  28  31 S7        30.11F
NEWCASTLE      FAIR      55  25  30 SE22G35   30.11F

$$
WYZ014>020-022>026-101>103-200000-
CENTRAL WYOMING

CITY           SKY/WX    TMP DP  RH WIND       PRES   REMARKS
BIG PINEY      FAIR      56   8  14 SE18      29.91F
PINEDALE       MOCLDY    54   9  16 SE13G18   29.94F
DUBOIS         FAIR      46  16  29 SE15G25   30.00S
LANDER         FAIR      53  23  31 VRB5      29.96F
RIVERTON       FAIR      56  24  29 VRB6      29.97F
CASPER         FAIR      63  19  18 E16       29.93F
DOUGLAS        FAIR      62  24  23 SE29G38   30.01F

$$
WYZ021-027>030-104>119-200000-
SOUTHERN WYOMING

CITY           SKY/WX    TMP DP  RH WIND       PRES   REMARKS
EVANSTON       FAIR      57   4  12 S13G18    29.84F
KEMMERER       FAIR      55   0  10 S10G18    29.87F
FORT BRIDGER   FAIR      59  -1   8 SE20G31   29.89F
ROCK SPRINGS   FAIR      56  -2   9 SW13      29.90F
DIXON          FAIR      64  10  11 S7        29.89F
RAWLINS        FAIR      61   6  11 CALM      29.92F
SARATOGA       FAIR      61   5  11 E6        29.92F
LARAMIE        FAIR      53  16  23 SE32G46   29.99F
CHEYENNE       FAIR      56  17  21 SE26G36   30.04F
TORRINGTON     FAIR      60  26  27 SE23G36   30.05F
PINE BLUFFS    FAIR      59  21  23 SE25G37   30.07F

$$




USA.gov is the U.S. government's official web portal to all federal, state and local government web resources and services.